Temp
-11 -10 -11 -11 -11 -11 -11 -11 -10 -11 -11 -11 -11 -11 -11 -11 -12 -12 -11 -11 -12 -12 -12 -12 -12 -11 -11 -12 -12 -12 -12 -12 -12 -12 -12 -11 -11 -11 -11 -12 -12 -12 -12 -12
-10 -10 -11 -11 -11 -11 -11 -11 -11 -11 -11 -11 -11 -11 -11 -12 -12 -12 -12 -12 -12 -12 -12 -12 -12 -12 -12 -12 -11 -11 -12 -12 -12 -12 -12 -12 -12 -12 -11 -11 -11 -12 -12 -12
-11 -11 -11 -11 -11 -12 -12 -12 -12 -12 -12 -12 -12 -11 -12 -13 -13 -13 -13 -13 -13 -13 -12 -12 -12 -12 -12 -12 -12 -12 -12 -12 -12 -13 -12 -12 -12 -12 -12 -12 -12 -12 -12 -12
-11 -11 -12 -12 -12 -12 -12 -12 -12 -12 -12 -13 -13 -11 -12 -13 -13 -13 -13 -13 -13 -14 -14 -13 -13 -12 -12 -12 -13 -13 -13 -13 -13 -13 -13 -13 -13 -13 -13 -13 -13 -13 -13 -13
-12 -12 -12 -12 -12 -12 -12 -13 -13 -13 -13 -13 -13 -13 -12 -13 -14 -14 -14 -15 -15 -15 -16 -16 -15 -16 -15 -14 -14 -14 -14 -14 -14 -14 -14 -14 -14 -14 -13 -13 -13 -13 -13 -13
-12 -12 -13 -13 -13 -13 -13 -13 -14 -14 -14 -13 -14 -14 -12 -14 -14 -15 -14 -15 -15 -16 -17 -17 -16 -16 -16 -16 -16 -16 -15 -15 -15 -15 -15 -15 -14 -14 -14 -15 -14 -14 -14 -13
-13 -13 -14 -14 -14 -14 -15 -15 -15 -15 -14 -14 -14 -14 -14 -14 -14 -14 -15 -15 -16 -16 -17 -17 -17 -17 -17 -17 -17 -16 -16 -16 -16 -16 -15 -16 -15 -15 -15 -15 -15 -14 -14 -15
-14 -14 -15 -15 -15 -15 -15 -16 -16 -16 -15 -15 -15 -14 -14 -15 -15 -15 -16 -16 -16 -17 -18 -18 -17 -17 -17 -17 -17 -18 -18 -17 -17 -17 -17 -16 -16 -16 -16 -16 -15 -15 -15 -15
-16 -16 -16 -16 -16 -16 -15 -16 -16 -16 -16 -16 -15 -15 -15 -16 -16 -16 -17 -17 -16 -17 -17 -17 -17 -17 -18 -18 -19 -18 -18 -18 -18 -18 -18 -17 -17 -17 -17 -17 -16 -16 -16 -16
-16 -16 -16 -16 -16 -16 -17 -17 -17 -17 -18 -18 -16 -16 -17 -17 -18 -18 -18 -18 -18 -18 -18 -18 -18 -18 -19 -19 -19 -20 -20 -19 -19 -19 -19 -19 -19 -19 -18 -18 -18 -18 -17 -17
-16 -16 -16 -16 -16 -17 -18 -18 -18 -19 -19 -19 -19 -18 -18 -19 -19 -18 -19 -19 -19 -19 -19 -19 -19 -20 -20 -21 -21 -21 -21 -21 -21 -20 -20 -20 -20 -20 -19 -20 -20 -20 -20 -19
-17 -17 -16 -17 -18 -18 -18 -18 -19 -19 -19 -20 -20 -19 -19 -19 -20 -20 -20 -20 -20 -21 -21 -21 -21 -21 -21 -21 -21 -22 -22 -22 -22 -22 -22 -21 -21 -22 -21 -21 -21 -21 -21 -21
-18 -18 -17 -17 -18 -19 -20 -20 -20 -20 -20 -20 -21 -20 -21 -21 -22 -22 -22 -21 -22 -22 -22 -22 -22 -22 -22 -23 -23 -23 -23 -23 -23 -23 -22 -21 -21 -22 -22 -22 -22 -22 -21 -21
-18 -18 -19 -18 -20 -20 -20 -20 -20 -21 -21 -22 -21 -22 -21 -22 -23 -23 -23 -23 -23 -23 -23 -23 -23 -23 -23 -23 -23 -23 -23 -23 -23 -23 -23 -23 -22 -22 -22 -22 -21 -22 -22 -22
-19 -20 -20 -20 -20 -20 -20 -20 -20 -22 -22 -24 -22 -23 -22 -23 -23 -23 -23 -24 -24 -24 -24 -24 -24 -24 -24 -24 -24 -24 -24 -24 -24 -24 -24 -24 -24 -24 -23 -23 -23 -24 -25 -23
-21 -21 -21 -21 -21 -21 -21 -20 -21 -22 -23 -23 -24 -23 -24 -23 -24 -24 -24 -24 -24 -24 -24 -24 -24 -24 -24 -25 -25 -25 -25 -26 -26 -26 -26 -27 -27 -27 -26 -26 -25 -25 -25 -25
-21 -21 -22 -22 -22 -23 -22 -21 -23 -23 -23 -23 -23 -23 -24 -24 -24 -24 -24 -24 -24 -25 -25 -25 -26 -26 -26 -27 -27 -28 -28 -29 -29 -29 -29 -29 -29 -29 -29 -29 -29 -29 -28 -27
-22 -23 -23 -23 -23 -23 -22 -23 -23 -23 -23 -23 -24 -24 -25 -25 -25 -25 -25 -25 -26 -26 -27 -28 -28 -29 -30 -30 -30 -30 -30 -30 -30 -31 -31 -31 -31 -30 -30 -30 -30 -30 -30 -29
-23 -24 -24 -25 -24 -24 -23 -24 -24 -25 -25 -24 -25 -26 -26 -25 -26 -26 -26 -27 -27 -28 -29 -29 -30 -30 -31 -31 -31 -31 -31 -31 -31 -31 -31 -31 -31 -31 -31 -30 -30 -30 -30 -29
-24 -25 -25 -25 -25 -25 -25 -25 -25 -26 -25 -25 -25 -26 -26 -26 -26 -26 -28 -29 -30 -30 -31 -31 -31 -31 -31 -31 -31 -31 -31 -31 -31 -31 -31 -31 -31 -31 -31 -30 -30 -30 -30 -29
-25 -25 -25 -25 -25 -25 -25 -26 -26 -26 -26 -25 -26 -26 -27 -27 -28 -28 -30 -31 -31 -31 -31 -31 -32 -32 -32 -31 -31 -31 -32 -32 -32 -31 -31 -31 -31 -31 -31 -30 -30 -30 -29 -29
-25 -26 -25 -26 -27 -26 -26 -27 -27 -28 -27 -27 -27 -27 -28 -29 -30 -31 -31 -31 -31 -31 -31 -32 -32 -32 -32 -32 -32 -32 -32 -32 -32 -32 -32 -32 -32 -32 -31 -31 -31 -31 -30 -30
-26 -26 -26 -27 -27 -27 -28 -28 -28 -29 -29 -29 -29 -29 -31 -31 -31 -32 -32 -32 -32 -32 -32 -32 -32 -32 -32 -33 -33 -33 -32 -32 -33 -33 -33 -32 -32 -32 -33 -33 -33 -32 -31 -30
-27 -26 -27 -27 -27 -28 -29 -30 -30 -30 -31 -31 -32 -32 -32 -32 -32 -32 -32 -32 -33 -33 -33 -33 -33 -33 -33 -33 -33 -33 -33 -34 -34 -34 -34 -33 -33 -34 -34 -34 -33 -31 -30 -30
-26 -27 -27 -28 -28 -29 -29 -30 -31 -32 -32 -33 -33 -33 -33 -33 -33 -33 -33 -33 -33 -33 -33 -33 -33 -34 -34 -34 -34 -34 -35 -35 -35 -35 -34 -34 -34 -34 -34 -33 -33 -32 -31 -30
-27 -27 -28 -29 -29 -30 -30 -31 -32 -32 -33 -32 -33 -33 -33 -33 -33 -33 -33 -33 -34 -34 -34 -34 -34 -34 -34 -35 -36 -37 -37 -36 -36 -36 -35 -35 -35 -34 -33 -33 -32 -32 -31 -30
Height
5810 5810 5811 5808 5807 5806 5806 5804 5803 5805 5804 5800 5801 5799 5799 5800 5796 5794 5797 5796 5795 5793 5792 5792 5790 5788 5788 5787 5786 5785 5784 5785 5785 5783 5782 5782 5780 5781 5782 5781 5780 5781 5780 5780
5802 5800 5801 5800 5799 5797 5795 5793 5794 5791 5791 5789 5790 5788 5791 5790 5786 5786 5786 5788 5787 5785 5784 5781 5781 5779 5777 5776 5775 5775 5774 5775 5774 5773 5771 5770 5771 5770 5770 5769 5769 5769 5769 5768
5791 5791 5791 5790 5786 5788 5788 5786 5785 5782 5781 5780 5775 5775 5781 5780 5778 5776 5776 5775 5775 5775 5775 5775 5772 5770 5768 5766 5763 5762 5761 5761 5762 5763 5762 5760 5759 5758 5758 5757 5757 5757 5757 5758
5780 5782 5780 5778 5778 5777 5776 5776 5776 5775 5772 5769 5767 5764 5770 5765 5764 5763 5762 5762 5760 5759 5759 5762 5760 5759 5758 5756 5754 5752 5750 5749 5749 5749 5749 5749 5748 5747 5744 5744 5745 5744 5743 5742
5772 5770 5771 5771 5769 5767 5766 5764 5764 5763 5761 5759 5760 5756 5757 5753 5752 5752 5748 5744 5744 5746 5745 5743 5744 5745 5745 5745 5743 5741 5739 5737 5735 5734 5734 5733 5733 5733 5733 5732 5730 5730 5729 5729
5760 5760 5761 5759 5758 5759 5759 5756 5754 5752 5752 5749 5749 5747 5750 5744 5741 5739 5737 5736 5734 5733 5731 5729 5730 5730 5729 5729 5729 5728 5727 5725 5722 5722 5720 5718 5717 5717 5716 5716 5716 5714 5713 5713
5749 5750 5749 5748 5748 5748 5747 5746 5745 5742 5741 5741 5739 5738 5739 5735 5732 5729 5726 5725 5723 5721 5718 5715 5712 5712 5712 5713 5713 5711 5709 5709 5707 5705 5703 5702 5700 5700 5699 5698 5696 5697 5696 5694
5738 5739 5738 5739 5736 5736 5735 5736 5734 5727 5730 5731 5730 5725 5727 5724 5720 5718 5716 5713 5709 5706 5703 5700 5699 5697 5697 5696 5695 5693 5691 5689 5687 5687 5685 5683 5682 5680 5678 5677 5676 5675 5674 5674
5724 5726 5727 5727 5725 5725 5724 5723 5721 5714 5714 5713 5717 5715 5711 5710 5705 5704 5703 5699 5696 5693 5691 5686 5685 5682 5679 5677 5675 5674 5671 5669 5667 5665 5664 5663 5661 5660 5658 5656 5654 5652 5650 5648
5714 5713 5713 5712 5711 5709 5709 5708 5705 5700 5695 5692 5698 5703 5699 5695 5692 5688 5686 5683 5681 5677 5674 5671 5668 5664 5661 5659 5656 5652 5650 5647 5645 5643 5641 5639 5638 5636 5635 5633 5632 5630 5629 5627
5701 5701 5702 5698 5697 5693 5692 5691 5688 5685 5682 5678 5678 5685 5688 5682 5676 5673 5672 5669 5665 5662 5658 5654 5649 5646 5642 5638 5634 5631 5628 5624 5621 5618 5616 5615 5614 5614 5612 5609 5607 5606 5605 5605
5686 5683 5686 5686 5679 5676 5676 5680 5675 5668 5670 5665 5660 5663 5671 5667 5660 5657 5654 5650 5647 5644 5640 5635 5630 5626 5622 5617 5612 5608 5605 5603 5600 5597 5596 5595 5592 5590 5588 5586 5584 5583 5582 5580
5671 5667 5669 5672 5667 5664 5663 5665 5660 5654 5650 5650 5646 5647 5654 5649 5643 5638 5635 5631 5626 5625 5621 5616 5612 5606 5601 5595 5590 5586 5582 5580 5578 5576 5573 5569 5566 5568 5564 5560 5557 5556 5556 5556
5652 5651 5651 5654 5649 5648 5647 5651 5646 5636 5633 5633 5630 5630 5636 5631 5622 5619 5617 5614 5607 5604 5601 5595 5590 5584 5578 5573 5569 5563 5558 5555 5553 5550 5548 5545 5542 5539 5537 5532 5530 5529 5529 5529
5634 5634 5632 5636 5636 5630 5630 5633 5633 5621 5620 5610 5615 5611 5616 5612 5606 5602 5599 5596 5589 5582 5577 5573 5569 5565 5556 5550 5544 5538 5533 5528 5522 5519 5515 5513 5510 5507 5505 5502 5499 5497 5494 5496
5618 5615 5615 5616 5616 5613 5610 5618 5613 5611 5605 5597 5594 5589 5594 5589 5587 5581 5577 5574 5567 5561 5555 5548 5542 5537 5530 5525 5521 5514 5508 5501 5497 5494 5489 5484 5480 5477 5473 5470 5467 5464 5462 5462
5605 5602 5598 5596 5596 5593 5592 5607 5596 5592 5592 5584 5577 5575 5570 5567 5565 5561 5555 5550 5543 5539 5532 5524 5517 5510 5503 5499 5494 5489 5484 5479 5474 5469 5464 5459 5454 5450 5446 5443 5440 5437 5434 5432
5587 5584 5579 5578 5575 5567 5586 5580 5579 5573 5573 5566 5555 5553 5548 5546 5542 5537 5533 5529 5521 5515 5509 5503 5498 5491 5484 5478 5474 5468 5464 5459 5455 5451 5446 5439 5432 5427 5421 5418 5414 5411 5408 5406
5572 5568 5562 5560 5557 5554 5565 5564 5556 5549 5551 5551 5541 5535 5531 5528 5524 5519 5511 5506 5500 5494 5489 5484 5480 5476 5470 5464 5459 5454 5448 5442 5437 5432 5426 5420 5413 5406 5400 5394 5389 5384 5379 5376
5557 5553 5548 5546 5537 5535 5544 5546 5538 5528 5529 5530 5521 5515 5509 5504 5502 5500 5487 5483 5479 5474 5470 5466 5462 5457 5454 5449 5444 5439 5433 5427 5421 5414 5407 5399 5391 5384 5379 5373 5366 5359 5352 5348
5542 5536 5533 5533 5518 5515 5523 5520 5517 5512 5509 5508 5502 5495 5490 5485 5479 5477 5472 5468 5462 5459 5456 5451 5446 5442 5438 5434 5428 5423 5416 5410 5404 5396 5388 5379 5370 5363 5355 5349 5341 5335 5330 5325
5525 5523 5525 5513 5504 5498 5503 5498 5495 5490 5483 5480 5479 5474 5469 5465 5462 5456 5454 5450 5446 5444 5440 5436 5431 5426 5421 5417 5412 5406 5399 5393 5386 5377 5368 5359 5351 5343 5334 5327 5320 5313 5307 5303
5507 5515 5504 5500 5488 5486 5480 5476 5473 5467 5462 5458 5456 5454 5447 5445 5444 5441 5438 5434 5431 5428 5424 5420 5416 5410 5404 5399 5393 5388 5381 5374 5367 5358 5350 5342 5335 5326 5317 5311 5304 5298 5292 5288
5496 5494 5486 5480 5482 5473 5464 5460 5453 5448 5442 5440 5437 5436 5432 5429 5428 5425 5421 5418 5416 5412 5408 5404 5399 5394 5388 5382 5375 5369 5363 5356 5349 5342 5333 5326 5319 5312 5306 5300 5292 5284 5278 5273
5483 5472 5475 5458 5459 5454 5450 5445 5438 5432 5426 5424 5424 5420 5419 5414 5412 5409 5407 5403 5399 5396 5392 5388 5383 5378 5371 5365 5359 5352 5347 5341 5334 5327 5318 5312 5306 5301 5297 5290 5281 5273 5265 5259
5465 5458 5445 5440 5444 5428 5427 5426 5421 5415 5413 5410 5407 5406 5404 5401 5398 5396 5392 5389 5384 5380 5376 5371 5366 5361 5355 5349 5343 5337 5332 5326 5320 5312 5306 5300 5296 5292 5286 5280 5273 5262 5253 5245
Wind_Speed
42 42 39 40 41 42 42 45 48 47 50 53 50 48 44 42 42 43 42 35 31 34 36 37 37 36 36 36 36 35 35 33 33 32 33 35 34 34 39 40 40 40 41 40
43 44 42 44 45 47 48 50 50 53 51 53 49 48 42 39 44 44 45 44 41 38 39 39 40 40 39 40 41 40 39 39 39 40 39 41 41 42 40 42 44 45 44 41
44 44 43 44 48 48 46 47 48 49 48 45 49 49 42 41 44 45 43 42 40 37 36 38 37 37 38 39 38 37 37 38 39 42 44 45 45 46 47 46 45 45 46 46
39 37 37 39 41 44 44 45 45 44 47 47 47 52 46 49 49 48 48 46 46 41 40 36 38 40 42 42 42 41 41 39 37 41 42 45 48 51 51 51 49 46 47 48
38 40 38 38 41 44 45 46 45 45 47 51 49 53 51 52 51 51 52 50 48 45 44 46 41 37 37 40 42 43 42 42 44 46 47 49 48 50 53 54 54 53 51 53
44 44 43 44 43 43 45 48 48 49 50 54 51 53 54 53 52 51 51 51 50 47 45 47 45 44 46 43 40 45 45 50 55 55 54 56 55 56 57 58 60 59 61 60
42 41 42 44 45 45 47 49 48 51 53 54 54 56 54 52 52 53 53 53 52 51 52 52 54 54 53 49 48 53 56 55 59 60 61 59 62 61 63 64 64 66 70 69
43 42 43 46 47 48 48 49 49 51 52 51 50 54 50 52 53 54 53 54 55 54 54 58 58 58 57 55 54 57 60 60 60 61 62 64 67 71 72 73 73 72 73 79
45 44 41 41 44 47 51 53 55 58 58 57 54 53 52 51 52 54 55 55 56 58 61 63 64 64 64 61 59 61 63 66 68 69 69 69 71 75 79 81 83 85 85 87
49 50 52 52 53 52 52 53 55 54 55 56 52 47 50 50 50 52 55 59 60 61 62 64 66 66 66 67 67 68 69 71 72 73 74 74 74 76 77 79 81 83 87 90
57 58 55 55 52 50 51 50 49 51 53 55 55 52 51 54 55 58 59 60 61 63 65 66 69 69 70 72 74 76 77 79 80 77 72 75 73 74 79 81 80 76 78 81
51 52 53 49 50 50 50 46 49 53 54 56 58 58 54 55 56 57 59 61 62 65 67 69 73 75 75 75 74 75 75 73 72 74 77 77 76 83 88 84 82 77 77 80
51 53 53 53 52 50 48 49 52 56 58 58 59 60 54 57 58 60 63 65 68 69 72 74 75 79 81 82 84 83 81 80 79 80 82 80 79 84 89 84 79 82 82 85
52 53 53 51 52 52 53 52 54 58 60 59 61 59 58 58 61 64 65 66 70 72 74 77 78 81 83 85 86 88 89 90 91 93 93 94 97 96 99 96 93 100 94 99
52 52 55 53 55 58 58 57 58 62 59 60 63 64 65 66 69 70 70 71 73 77 78 80 80 82 85 87 88 91 92 94 96 98 99 101 103 105 106 109 110 110 105 105
53 56 58 57 57 59 62 60 63 62 63 67 68 72 69 72 72 73 74 75 77 80 82 83 82 81 82 83 83 84 86 87 88 89 89 89 90 92 96 102 107 108 108 109
57 59 59 61 61 62 66 58 61 64 64 69 73 74 74 74 74 76 78 80 81 81 79 76 77 78 78 76 76 74 74 75 75 76 77 78 81 82 83 83 85 86 89 93
61 61 62 63 64 69 63 65 65 69 70 71 75 75 76 77 78 79 79 79 77 74 72 70 67 66 66 67 66 66 66 66 66 67 68 70 72 74 76 77 78 78 80 81
59 59 63 62 65 68 65 63 67 70 70 69 72 73 76 77 77 77 75 74 70 64 59 57 55 55 57 59 59 60 62 63 65 67 69 71 73 75 77 78 79 79 79 79
57 59 61 64 67 69 67 66 69 73 74 71 76 77 79 80 80 75 70 64 56 53 53 53 53 53 53 55 57 60 63 66 67 68 70 72 74 76 76 76 77 79 80 80
58 61 63 65 72 73 69 71 71 74 75 76 77 78 79 78 75 68 57 50 50 51 51 51 52 53 55 57 60 62 64 65 67 69 71 74 76 75 75 73 72 72 72 71
59 61 63 68 72 75 71 73 72 74 77 77 78 78 75 69 59 51 47 48 49 48 50 51 53 56 58 60 61 62 63 65 67 70 71 72 71 69 69 67 64 63 61 54
62 58 65 68 72 73 73 72 72 75 76 75 76 71 62 55 48 46 47 49 49 48 49 50 53 55 58 60 61 63 65 67 67 67 66 67 65 62 56 54 53 54 52 46
60 62 67 71 70 69 67 66 71 69 67 66 63 56 51 49 48 47 47 47 48 48 50 52 53 55 58 60 62 63 64 63 62 62 65 62 56 49 46 45 47 51 50 45
62 67 67 72 71 68 70 67 64 62 59 57 52 49 48 48 48 48 47 48 49 50 51 53 54 57 59 59 60 60 58 58 59 60 61 54 45 42 40 42 42 42 42 41
63 67 69 71 67 67 65 60 59 57 55 55 51 47 46 47 48 47 47 48 49 50 53 54 56 58 58 57 55 54 57 57 58 57 53 44 40 39 38 37 37 42 42 43
Wind_Direction
280 282 284 280 280 282 284 284 287 291 290 291 292 294 293 292 293 290 287 288 288 289 288 288 287 286 285 284 285 282 278 276 273 273 274 273 268 270 271 270 273 268 264 264
281 279 280 281 280 281 281 281 284 285 286 288 291 290 288 291 288 291 293 292 290 287 288 288 286 283 282 279 278 279 279 279 274 270 268 267 266 269 265 265 272 274 272 266
281 282 281 278 279 282 283 283 285 287 288 289 289 288 291 291 289 289 291 291 293 290 286 284 283 281 281 283 282 279 277 275 272 273 271 268 267 266 266 264 263 265 269 267
282 282 278 280 285 286 288 288 287 287 288 287 285 288 293 291 293 294 295 294 296 300 297 287 280 277 278 281 285 286 287 279 272 275 274 273 272 267 263 263 261 256 259 259
281 281 283 285 284 285 285 286 285 285 283 285 288 291 292 293 296 300 303 307 308 306 301 299 298 292 287 281 279 279 278 271 271 276 273 270 270 272 268 264 259 256 257 257
281 283 285 286 283 281 281 280 279 279 280 281 283 284 287 291 297 298 297 298 300 301 296 295 296 289 289 287 267 263 270 261 270 276 274 267 265 266 266 266 258 254 255 256
283 285 285 285 284 282 279 278 278 278 279 282 286 286 289 291 293 295 295 296 295 293 290 290 290 290 290 286 277 271 276 272 269 270 272 266 262 264 265 265 260 261 257 256
283 282 279 283 281 281 281 280 280 281 282 282 285 286 288 289 288 286 286 287 288 288 285 284 287 286 284 281 277 274 271 271 269 268 267 267 265 265 265 263 262 261 261 260
280 278 281 283 283 283 284 284 282 279 277 278 280 281 282 282 280 282 283 283 281 281 283 284 285 285 284 280 277 274 271 271 271 271 270 268 265 262 260 260 261 263 264 265
282 285 288 288 286 281 280 280 279 279 280 278 280 278 282 281 282 282 282 282 284 285 285 283 282 282 280 279 278 275 273 272 272 273 273 272 268 266 264 261 261 262 263 263
284 284 285 286 286 276 273 273 273 271 272 276 275 275 279 279 279 279 279 280 281 281 281 280 280 279 278 277 276 275 276 275 275 278 278 275 269 273 270 269 270 268 269 269
282 282 283 283 274 271 271 271 270 268 270 272 276 277 283 284 282 281 280 280 278 277 277 278 278 278 279 278 279 281 280 280 274 272 273 269 265 273 270 267 268 268 270 270
287 283 283 283 279 274 270 271 272 272 273 273 274 282 284 282 281 278 277 277 277 278 279 280 280 278 280 281 281 281 279 276 272 272 269 270 265 267 272 259 264 265 264 264
285 284 283 284 278 276 273 274 274 273 274 278 279 285 283 285 284 282 282 283 283 285 285 284 283 282 282 281 281 280 279 277 275 273 272 269 270 270 270 271 264 269 269 268
278 277 274 273 270 271 272 273 273 274 279 280 283 281 283 282 282 283 285 285 285 285 285 284 283 282 281 280 280 279 278 277 277 276 275 274 272 272 270 271 273 274 277 274
272 271 270 270 269 269 268 271 272 275 276 280 285 284 286 286 286 286 287 287 287 288 288 288 286 284 281 279 278 278 278 278 277 276 276 277 276 276 275 274 273 275 275 274
272 271 269 269 270 271 270 278 274 276 278 281 282 285 287 288 288 289 290 291 291 291 289 288 286 285 284 284 283 283 282 282 283 283 283 283 282 282 282 281 280 278 276 275
271 272 274 274 274 271 277 276 280 281 281 283 287 290 290 291 292 293 294 293 291 289 287 285 284 284 284 285 286 286 287 288 289 290 289 288 288 287 286 285 284 282 281 280
270 271 274 275 276 279 281 284 285 286 285 288 289 288 289 290 291 293 292 290 288 287 285 282 282 281 282 284 287 289 291 291 292 292 291 290 289 288 287 287 287 286 285 283
271 272 272 276 279 281 285 285 285 286 286 288 289 291 292 293 294 293 291 291 289 287 285 285 284 285 286 287 289 290 292 292 292 292 291 291 291 290 290 290 288 287 286 285
271 274 278 280 283 284 285 286 287 288 292 290 290 291 292 292 292 292 289 285 283 283 283 282 282 284 285 287 289 292 292 293 293 294 294 294 294 294 295 294 292 291 290 290
273 275 280 281 282 285 289 290 290 292 292 291 291 292 291 291 291 290 287 285 285 286 284 285 286 287 288 289 291 293 294 295 296 296 297 296 298 299 299 299 298 297 297 295
274 277 278 281 286 289 291 291 292 290 290 291 291 292 293 293 291 288 287 287 289 288 287 288 287 289 291 293 295 296 296 296 298 299 298 299 301 302 302 302 303 303 302 298
275 278 281 283 287 287 288 288 286 288 288 288 288 290 291 289 289 289 289 289 289 290 291 291 292 293 294 296 296 296 297 298 299 301 300 303 303 302 303 304 307 307 305 302
280 281 286 283 284 284 283 284 284 283 283 283 288 289 289 288 289 289 289 290 290 292 292 293 294 296 296 295 295 295 297 299 301 302 302 303 300 300 300 306 313 315 308 301
283 285 281 283 285 283 284 281 278 279 281 286 289 290 286 285 286 287 288 290 291 292 293 295 295 296 294 293 295 296 299 301 303 300 302 297 297 297 303 309 317 318 321 321